Terminal Aerodrome Forecast
Issued by NWS Memphis, TN

Home | Current Version | Previous Version | Text Only | Print | Product List | Glossary On
Versions: 1 2 3 4 5 6 7 8 9 10 11 12 13 14 15 16 17 18 19 20
000
FTUS44 KMEG 231130
TAFJBR
TAF
KJBR 231130Z 2312/2412 20003KT 1/2SM FG VV002
     FM231500 19008KT 4SM BR SCT007
      TEMPO 2315/2316 2SM BR BKN005
     FM231800 19014G23KT P6SM FEW040 SCT250
     FM240000 18011G17KT P6SM SCT250
     FM240400 19013G18KT P6SM FEW045 SCT250 WS020/19044KT=

USA.gov is the U.S. government's official web portal to all federal, state and local government web resources and services.